sat.trackr.live / text

‹ back to catalog

STARLINK-35119

NORAD 65508 · 2025-198S

PAYLOAD ACTIVE UNKNOWN

§ Identity

Operator
Country
US
Launch date
2025-09-05
Launch site
AFETR
Launch vehicle
Mass (kg)
RCS (m²)

Purposes: comms

External: N2YO · Heavens-Above · Gunter

§ Orbital elements

Epoch: 2026-09-20T21:18:54.584928Z

Period
93.85 min
Inclination
53.1603°
Eccentricity
0.0000838
Mean motion
15.34401273 rev/d
Perigee alt
462.1 km
Apogee alt
463.3 km
Semi-major
6,840.8 km
B*
4.7675e-4
RAAN
80.2231°
Arg perigee
88.1066°
Mean anomaly
272.0032°
Rev number
5,856

§ Raw data

STARLINK-351191 65508U 25198S   26263.88813177  .00015766  00000+0  47675-3 0  99972 65508  53.1603  80.2231 0000838  88.1066 272.0032 15.34401273 58568

JSON: /api/v1/satellites/65508 · /tle

For live sub-satellite position, see the globe view (requires WebGL).

§ Visibility from observer

Set your observer location to see the next 7 days of passes ≥ 10°. The values pass through the URL so the page stays shareable.

No JS? Fill the form by hand. The geolocation button needs JavaScript.